User: anonymous   Login
Location: Lussas
(44.6119°N, 4.4726°E)
Time: 21:31:56
(UTC+00:00)
Language:

SJ 16-02 - Orbit

View from above orbital plane
View from above orbital plane
View from above satellite
View from above satellite

Ground track
Ground track

The orbit data is extracted from the following two-line orbital elements,

1 41634U 16043A   21058.55386584  .00000265  00000-0  33655-4 0  9991
2 41634  75.0055 315.7080 0006423  42.5589 317.6107 14.85772152253124
Epoch (UTC): 27 February 2021 13:17:34
Eccentricity: 0.0006423
inclination: 75.0055°
perigee height: 606 km
apogee height: 615 km
right ascension of ascending node: 315.7080°
argument of perigee: 42.5589°
revolutions per day: 14.85772152
mean anomaly at epoch: 317.6107°
orbit number at epoch: 25312

The dashed part of the orbit path shows where the satellite is in the earth's shadow,  

DLR